Location: Bu�n Treun
(12.1333°N, 108.3167°E)
Time: 00:36:52
(UTC+00:00)

Cosmos 1092 Rocket - Pass Details

Date: 13 July 2020
Orbit: 955 x 994 km, 83.0° (Epoch: 03 August)

Event Time Altitude Azimuth Distance (km) Brightness Sun altitude
Rises 21:48:21 0° 342° (NNW) 3,690 7.1 -10.0°
Reaches altitude 10° 21:51:03 10° 335° (NNW) 2,737 6.4 -9.4°
Maximum altitude 21:56:47 39° 269° (W) 1,437 4.5 -8.1°
Drops below altitude 10° 22:02:29 10° 202° (SSW) 2,712 5.9 -6.9°
Sets 22:05:09 0° 194° (SSW) 3,653 6.6 -6.3°
